Location: Marcé
(47.5801°N, 0.3280°W)
Time: 03:50:51
(UTC+02:00)

ACS3 Solar Sail - Visible Passes

Search period start: 08 June 2026 00:00
Search period end: 18 June 2026 00:00
Orbit: 880 x 951 km, 97.2° (Epoch: 7 June)

Date Brightness Start Highest point End Pass type
(mag) Time Alt. Az. Time Alt. Az. Time Alt. Az.
8 Jun 3.3 01:15:19 10° NE 01:19:26 20° E 01:21:51 16° ESE visible
8 Jun 1.7 02:56:30 10° N 03:02:12 70° WNW 03:05:13 29° SSW visible
8 Jun 3.7 04:40:51 10° NNW 04:43:27 13° NW 04:46:03 10° W visible
9 Jun 3.2 01:22:04 10° NE 01:26:35 23° E 01:28:59 18° ESE visible
9 Jun 1.9 03:03:33 10° N 03:09:12 61° WNW 03:12:21 27° SW visible
9 Jun 3.8 04:48:25 10° NNW 04:50:19 12° NW 04:52:13 10° WNW visible
10 Jun 3.0 01:28:48 10° NE 01:33:36 26° E 01:36:02 20° SE visible
10 Jun 2.1 03:10:32 10° N 03:16:06 53° WNW 03:19:24 25° SW visible
10 Jun 4.0 04:56:30 10° NW 04:57:06 10° NW 04:57:42 10° WNW visible
11 Jun 2.8 01:35:30 10° NNE 01:40:32 30° E 01:43:00 22° SE visible
11 Jun 2.2 03:17:27 10° N 03:22:55 47° WNW 03:26:21 22° SW visible
12 Jun 2.6 01:42:08 10° NNE 01:47:22 34° E 01:49:52 24° SE visible
12 Jun 2.4 03:24:17 10° N 03:29:39 41° WNW 03:33:13 20° SW visible
13 Jun 2.4 01:48:43 10° NNE 01:54:07 39° E 01:56:40 27° SE visible
13 Jun 2.6 03:31:03 10° N 03:36:16 37° WNW 03:40:00 18° WSW visible
14 Jun 2.2 01:55:14 10° NNE 02:00:46 45° E 02:03:22 28° SSE visible
14 Jun 2.8 03:37:46 10° N 03:42:49 33° WNW 03:46:42 16° WSW visible
15 Jun 2.1 02:01:41 10° NNE 02:07:20 51° E 02:09:59 30° SSE visible
15 Jun 2.9 03:44:23 10° N 03:49:15 29° WNW 03:53:19 14° WSW visible
16 Jun 1.9 02:08:05 10° NNE 02:13:48 58° E 02:16:31 31° SSE visible
16 Jun 3.1 03:50:56 10° N 03:55:37 26° WNW 03:59:50 12° WSW visible
17 Jun 3.9 00:36:19 10° ENE 00:36:56 10° E 00:37:32 10° E visible
17 Jun 1.8 02:14:24 10° NNE 02:20:11 66° E 02:22:58 32° S visible
17 Jun 3.2 03:57:26 10° N 04:01:52 23° WNW 04:06:16 10° WSW visible
